This is the latest recevied weather packets stored in our database for station/object PY2UTU-WX. If no packets are shown the sender has not sent any weather packets the latest 1 day(s).
| Time | Temp. | Humidity | Pressure | Rain* | Wind** | Luminosity | Snow |
|---|---|---|---|---|---|---|---|
| 1836274791 | 22.78° C | 98% | 923.1 hPa | - | 0 m/s | - | - |
| 1836273891 | 22.78° C | 98% | 923 hPa | - | 0 m/s | - | - |
| 1778035345 | 22.78° C | 98% | 927.8 hPa | - | 0 m/s | - | - |
| 1778034445 | 22.78° C | 98% | 928 hPa | - | 0 m/s | - | - |
| 1778033546 | 22.78° C | 98% | 928 hPa | - | 0 m/s | - | - |
| 1778032645 | 22.78° C | 98% | 928 hPa | - | 0 m/s | - | - |
| 1778031745 | 23.89° C | 98% | 928 hPa | - | 0 m/s | - | - |
| 1778030845 | 22.78° C | 98% | 928 hPa | - | 0 m/s | - | - |
| 1778029945 | 22.78° C | 98% | 928 hPa | - | 0 m/s | - | - |
| 1778029045 | 22.78° C | 98% | 928 hPa | - | 0 m/s | - | - |
| 1778028145 | 22.78° C | 98% | 928 hPa | - | 0 m/s | - | - |
| 1778027245 | 22.78° C | 98% | 928.1 hPa | - | 0 m/s | - | - |
| 1778026345 | 22.78° C | 98% | 928.1 hPa | - | 0 m/s | - | - |
| 1778025445 | 23.33° C | 98% | 928 hPa | - | 0 m/s | - | - |
| 1778024545 | 23.33° C | 98% | 928 hPa | - | 0 m/s | - | - |
| 1778023646 | 23.89° C | 98% | 928.2 hPa | - | 0 m/s | - | - |
| 1778022746 | 23.89° C | 98% | 928.2 hPa | - | 0 m/s | - | - |
| 1778021845 | 23.89° C | 98% | 928.1 hPa | - | 0 m/s | - | - |
| 1778020945 | 23.89° C | 98% | 927.8 hPa | - | 0 m/s | - | - |
| 1778020045 | 23.89° C | 98% | 927.8 hPa | - | 0 m/s | - | - |
| 1778019145 | 23.89° C | 98% | 927.7 hPa | - | 0 m/s | - | - |
| 1778018245 | 24.44° C | 98% | 927.5 hPa | - | 0 m/s | - | - |
| 1778017345 | 25° C | 98% | 927.4 hPa | - | 0 m/s | - | - |
| 1778016445 | 24.44° C | 98% | 927.4 hPa | - | 0 m/s | - | - |
| 1778015545 | 25° C | 98% | 927.4 hPa | - | 0 m/s | - | - |
* Rain since midnight (hover to see other rain measurements)
** Current wind speed in m/s (hover to see current wind gust speed)